UAL1689 KPIT-KIAD

Flight info

Callsign UAL1689
Flight time 0h 37m
Altitude 23000
Route MGW GIBBZ5
Aircraft B737/M-SDE2E3FGHIRWXY/LB1

Departure

Time 2026-05-08 21:46
Airport Pittsburgh International Airport (KPIT)

Arrival

Time 2026-05-08 22:23
Airport Washington Dulles International Airport (KIAD)
Time Latitude Longitude Altitude Speed Heading
2026-05-08 21:10 40.49606 -80.24498 1156 ft 0 kts 316°
2026-05-08 21:35 40.49605 -80.24496 1156 ft 1 kts 316°
2026-05-08 21:36 40.49594 -80.24483 1156 ft 2 kts 316°
2026-05-08 21:36 40.49584 -80.24470 1156 ft 2 kts 316°
2026-05-08 21:36 40.49573 -80.24456 1156 ft 2 kts 316°
2026-05-08 21:36 40.49562 -80.24442 1156 ft 2 kts 316°
2026-05-08 21:37 40.49555 -80.24434 1156 ft 0 kts 316°
2026-05-08 21:39 40.49564 -80.24432 1156 ft 3 kts 51°
2026-05-08 21:39 40.49606 -80.24365 1156 ft 11 kts 51°
2026-05-08 21:40 40.49655 -80.24262 1156 ft 13 kts 70°
2026-05-08 21:40 40.49665 -80.24159 1156 ft 11 kts 86°
2026-05-08 21:40 40.49665 -80.24052 1156 ft 12 kts 94°
2026-05-08 21:41 40.49499 -80.23975 1156 ft 19 kts 182°
2026-05-08 21:41 40.49353 -80.23984 1153 ft 22 kts 182°
2026-05-08 21:41 40.49212 -80.23990 1153 ft 15 kts 182°
2026-05-08 21:41 40.49107 -80.23994 1151 ft 13 kts 177°
2026-05-08 21:42 40.49065 -80.23906 1149 ft 15 kts 92°
2026-05-08 21:42 40.49060 -80.23715 1149 ft 23 kts 92°
2026-05-08 21:42 40.49052 -80.23467 1149 ft 34 kts 92°
2026-05-08 21:42 40.49046 -80.23151 1148 ft 33 kts 93°
2026-05-08 21:43 40.49036 -80.22847 1148 ft 34 kts 91°
2026-05-08 21:43 40.49029 -80.22532 1148 ft 34 kts 92°
2026-05-08 21:43 40.49033 -80.22237 1148 ft 28 kts 87°
2026-05-08 21:43 40.49028 -80.21986 1148 ft 26 kts 92°
2026-05-08 21:44 40.49021 -80.21748 1147 ft 26 kts 92°
2026-05-08 21:44 40.48999 -80.21523 1147 ft 23 kts 107°
2026-05-08 21:44 40.48983 -80.21307 1147 ft 23 kts 91°
2026-05-08 21:44 40.48978 -80.21119 1147 ft 10 kts 92°
2026-05-08 21:45 40.48976 -80.21063 1147 ft 6 kts 92°
2026-05-08 21:45 40.48974 -80.20983 1147 ft 9 kts 93°
2026-05-08 21:45 40.48925 -80.20938 1146 ft 10 kts 180°
2026-05-08 21:45 40.48891 -80.21007 1147 ft 12 kts 276°
2026-05-08 21:46 40.48899 -80.21239 1147 ft 55 kts 272°
2026-05-08 21:46 40.48920 -80.22067 1147 ft 124 kts 272°
2026-05-08 21:46 40.48957 -80.23411 1406 ft 156 kts 271°
2026-05-08 21:46 40.49010 -80.24763 2233 ft 150 kts 272°
2026-05-08 21:47 40.49073 -80.26066 3121 ft 140 kts 272°
2026-05-08 21:47 40.48985 -80.27325 3758 ft 146 kts 248°
2026-05-08 21:47 40.48218 -80.28245 4266 ft 168 kts 206°
2026-05-08 21:47 40.46978 -80.28235 4797 ft 194 kts 173°
2026-05-08 21:48 40.45642 -80.27697 5314 ft 211 kts 170°
2026-05-08 21:48 40.44199 -80.27065 5896 ft 228 kts 166°
2026-05-08 21:48 40.42672 -80.26328 6475 ft 243 kts 168°
2026-05-08 21:48 40.41016 -80.25598 7047 ft 260 kts 168°
2026-05-08 21:49 40.39245 -80.24806 7665 ft 276 kts 167°
2026-05-08 21:49 40.37422 -80.23962 8390 ft 286 kts 166°
2026-05-08 21:49 40.35522 -80.23070 9230 ft 294 kts 166°
2026-05-08 21:49 40.33588 -80.22154 10153 ft 298 kts 166°
2026-05-08 21:50 40.31615 -80.21217 10764 ft 314 kts 166°
2026-05-08 21:50 40.29492 -80.20213 11309 ft 331 kts 166°
2026-05-08 21:50 40.27260 -80.19175 11821 ft 349 kts 166°
2026-05-08 21:50 40.24940 -80.18105 12364 ft 364 kts 166°
2026-05-08 21:51 40.22511 -80.16978 13089 ft 374 kts 165°
2026-05-08 21:51 40.20062 -80.15829 13926 ft 381 kts 165°
2026-05-08 21:51 40.17544 -80.14651 14812 ft 388 kts 166°
2026-05-08 21:51 40.14998 -80.13463 15720 ft 393 kts 166°
2026-05-08 21:52 40.12404 -80.12254 16537 ft 400 kts 167°
2026-05-08 21:52 40.09773 -80.11030 17351 ft 407 kts 167°
2026-05-08 21:52 40.07093 -80.09785 18173 ft 412 kts 167°
2026-05-08 21:52 40.04373 -80.08525 18921 ft 420 kts 168°
2026-05-08 21:53 40.01626 -80.07252 19872 ft 421 kts 168°
2026-05-08 21:53 39.98855 -80.05965 20711 ft 425 kts 168°
2026-05-08 21:53 39.96067 -80.04676 21532 ft 429 kts 168°
2026-05-08 21:53 39.93258 -80.03377 22322 ft 433 kts 169°
2026-05-08 21:54 39.90409 -80.02062 22842 ft 435 kts 169°
2026-05-08 21:54 39.87550 -80.00743 22932 ft 440 kts 169°
2026-05-08 21:54 39.84677 -79.99416 22919 ft 436 kts 169°
2026-05-08 21:54 39.81832 -79.98096 22917 ft 434 kts 169°
2026-05-08 21:55 39.78963 -79.96770 22923 ft 437 kts 169°
2026-05-08 21:55 39.76100 -79.95449 22923 ft 435 kts 169°
2026-05-08 21:55 39.73243 -79.94130 22937 ft 437 kts 169°
2026-05-08 21:56 39.67515 -79.91494 22943 ft 434 kts 169°
2026-05-08 21:56 39.64701 -79.90171 22947 ft 438 kts 167°
2026-05-08 21:56 39.61899 -79.88492 22942 ft 447 kts 158°
2026-05-08 21:56 39.59325 -79.86142 22946 ft 458 kts 145°
2026-05-08 21:57 39.57117 -79.83112 22955 ft 467 kts 133°
2026-05-08 21:57 39.55306 -79.79627 22948 ft 472 kts 124°
2026-05-08 21:57 39.53856 -79.75803 22949 ft 476 kts 114°
2026-05-08 21:57 39.52802 -79.71747 22951 ft 477 kts 107°
2026-05-08 21:58 39.51967 -79.67577 22947 ft 478 kts 104°
2026-05-08 21:58 39.51244 -79.63393 22952 ft 479 kts 103°
2026-05-08 21:58 39.50560 -79.59196 22952 ft 479 kts 102°
2026-05-08 21:58 39.49875 -79.54978 22946 ft 479 kts 102°
2026-05-08 21:59 39.49176 -79.50764 22948 ft 479 kts 102°
2026-05-08 21:59 39.48463 -79.46546 22943 ft 480 kts 103°
2026-05-08 21:59 39.47745 -79.42380 22942 ft 480 kts 103°
2026-05-08 21:59 39.47006 -79.38168 22938 ft 480 kts 103°
2026-05-08 22:00 39.46253 -79.33974 22938 ft 480 kts 104°
2026-05-08 22:00 39.45480 -79.29733 22947 ft 480 kts 104°
2026-05-08 22:00 39.44719 -79.25588 22937 ft 479 kts 104°
2026-05-08 22:00 39.43955 -79.21458 22938 ft 466 kts 104°
2026-05-08 22:01 39.43206 -79.17415 22934 ft 459 kts 104°
2026-05-08 22:01 39.42477 -79.13398 22945 ft 459 kts 104°
2026-05-08 22:01 39.41761 -79.09360 22730 ft 463 kts 103°
2026-05-08 22:01 39.41062 -79.05365 22464 ft 458 kts 103°
2026-05-08 22:02 39.40371 -79.01395 22112 ft 448 kts 103°
2026-05-08 22:02 39.39693 -78.97510 21661 ft 443 kts 103°
2026-05-08 22:02 39.39012 -78.93623 21135 ft 447 kts 103°
2026-05-08 22:02 39.38324 -78.89714 20588 ft 444 kts 103°
2026-05-08 22:03 39.37637 -78.85850 20045 ft 439 kts 103°
2026-05-08 22:03 39.36956 -78.82045 19513 ft 434 kts 103°
2026-05-08 22:03 39.36279 -78.78272 18973 ft 429 kts 103°
2026-05-08 22:03 39.35617 -78.74600 18453 ft 423 kts 103°
2026-05-08 22:04 39.34954 -78.70927 17925 ft 419 kts 103°
2026-05-08 22:04 39.34296 -78.67287 17402 ft 414 kts 103°
2026-05-08 22:04 39.33643 -78.63680 16870 ft 409 kts 103°
2026-05-08 22:04 39.33004 -78.60169 16348 ft 405 kts 102°
2026-05-08 22:05 39.32365 -78.56657 15828 ft 401 kts 102°
2026-05-08 22:05 39.31735 -78.53179 15281 ft 397 kts 102°
2026-05-08 22:05 39.31110 -78.49731 14746 ft 392 kts 102°
2026-05-08 22:05 39.30495 -78.46336 14230 ft 388 kts 102°
2026-05-08 22:06 39.29893 -78.42977 13723 ft 383 kts 102°
2026-05-08 22:06 39.29296 -78.39651 13224 ft 379 kts 103°
2026-05-08 22:06 39.28537 -78.36438 12732 ft 374 kts 112°
2026-05-08 22:06 39.27336 -78.33468 12192 ft 369 kts 124°
2026-05-08 22:07 39.25923 -78.30794 11687 ft 364 kts 128°
2026-05-08 22:07 39.24439 -78.28187 11281 ft 354 kts 129°
2026-05-08 22:07 39.23016 -78.25675 11141 ft 339 kts 128°
2026-05-08 22:07 39.21668 -78.23237 10993 ft 326 kts 128°
2026-05-08 22:08 39.20414 -78.20918 10881 ft 314 kts 127°
2026-05-08 22:08 39.19185 -78.18621 10566 ft 309 kts 127°
2026-05-08 22:08 39.17977 -78.16331 10152 ft 308 kts 127°
2026-05-08 22:08 39.16790 -78.14083 9976 ft 297 kts 127°
2026-05-08 22:09 39.15650 -78.11921 9779 ft 293 kts 128°
2026-05-08 22:09 39.14511 -78.09763 9530 ft 291 kts 127°
2026-05-08 22:09 39.13377 -78.07614 9279 ft 288 kts 128°
2026-05-08 22:09 39.12251 -78.05479 9036 ft 288 kts 127°
2026-05-08 22:10 39.11133 -78.03359 8988 ft 286 kts 128°
2026-05-08 22:10 39.10020 -78.01254 8990 ft 287 kts 127°
2026-05-08 22:10 39.08900 -77.99142 8980 ft 286 kts 127°
2026-05-08 22:10 39.07770 -77.97015 8786 ft 288 kts 127°
2026-05-08 22:11 39.06643 -77.94891 8428 ft 286 kts 127°
2026-05-08 22:11 39.05523 -77.92783 8056 ft 286 kts 127°
2026-05-08 22:11 39.04403 -77.90674 7676 ft 285 kts 127°
2026-05-08 22:11 39.03302 -77.88601 7322 ft 283 kts 127°
2026-05-08 22:12 39.02194 -77.86514 7003 ft 280 kts 127°
2026-05-08 22:12 39.01107 -77.84465 6972 ft 274 kts 126°
2026-05-08 22:12 39.00028 -77.82433 6949 ft 275 kts 127°
2026-05-08 22:12 38.98970 -77.80437 6727 ft 271 kts 127°
2026-05-08 22:13 38.97904 -77.78426 6388 ft 274 kts 126°
2026-05-08 22:13 38.96875 -77.76349 6033 ft 276 kts 119°
2026-05-08 22:13 38.96257 -77.74043 5977 ft 271 kts 101°
2026-05-08 22:13 38.96009 -77.71624 5984 ft 280 kts 96°
2026-05-08 22:14 38.95820 -77.69128 5982 ft 277 kts 96°
2026-05-08 22:14 38.95615 -77.66662 5984 ft 278 kts 96°
2026-05-08 22:14 38.95593 -77.64205 5983 ft 280 kts 84°
2026-05-08 22:14 38.96216 -77.61859 5982 ft 278 kts 54°
2026-05-08 22:15 38.97614 -77.60199 5987 ft 276 kts 31°
2026-05-08 22:15 38.99265 -77.58948 5983 ft 273 kts 26°
2026-05-08 22:15 39.00955 -77.57879 5982 ft 269 kts 17°
2026-05-08 22:15 39.02741 -77.57390 5981 ft 250 kts 360°
2026-05-08 22:16 39.04413 -77.57371 5982 ft 235 kts 354°
2026-05-08 22:16 39.06031 -77.57437 5984 ft 234 kts 354°
2026-05-08 22:16 39.07661 -77.57475 5982 ft 233 kts 355°
2026-05-08 22:16 39.09269 -77.57478 5837 ft 229 kts 355°
2026-05-08 22:17 39.10864 -77.57483 5546 ft 230 kts 355°
2026-05-08 22:17 39.12479 -77.57487 5283 ft 230 kts 356°
2026-05-08 22:17 39.14066 -77.57488 5033 ft 229 kts 356°
2026-05-08 22:17 39.15660 -77.57494 4790 ft 228 kts 356°
2026-05-08 22:18 39.17233 -77.57150 4509 ft 234 kts 23°
2026-05-08 22:18 39.18385 -77.55684 4242 ft 240 kts 63°
2026-05-08 22:18 39.18586 -77.53585 3984 ft 240 kts 104°
2026-05-08 22:18 39.17748 -77.51813 3691 ft 235 kts 144°
2026-05-08 22:19 39.16338 -77.50810 3446 ft 230 kts 159°
2026-05-08 22:19 39.14875 -77.50003 3223 ft 228 kts 160°
2026-05-08 22:19 39.13443 -77.49200 3123 ft 219 kts 159°
2026-05-08 22:19 39.12060 -77.48417 2943 ft 215 kts 159°
2026-05-08 22:20 39.10700 -77.47645 2730 ft 211 kts 159°
2026-05-08 22:20 39.09333 -77.47047 2501 ft 204 kts 171°
2026-05-08 22:20 39.07969 -77.46697 2303 ft 198 kts 170°
2026-05-08 22:20 39.06663 -77.46209 2102 ft 194 kts 164°
2026-05-08 22:21 39.05403 -77.45795 1928 ft 177 kts 177°
2026-05-08 22:21 39.04225 -77.45797 1676 ft 165 kts 189°
2026-05-08 22:21 39.03114 -77.45881 1450 ft 153 kts 183°
2026-05-08 22:21 39.02096 -77.45843 1254 ft 141 kts 182°
2026-05-08 22:22 39.01156 -77.45877 1079 ft 131 kts 185°
2026-05-08 22:22 39.00251 -77.45888 912 ft 130 kts 182°
2026-05-08 22:22 38.99349 -77.45888 745 ft 130 kts 183°
2026-05-08 22:22 38.98419 -77.45916 586 ft 134 kts 183°
2026-05-08 22:23 38.97480 -77.45930 400 ft 134 kts 182°
2026-05-08 22:23 38.96558 -77.45943 273 ft 122 kts 181°
2026-05-08 22:23 38.95929 -77.45950 276 ft 61 kts 181°
2026-05-08 22:23 38.95618 -77.45946 278 ft 33 kts 173°
2026-05-08 22:24 38.95467 -77.45892 279 ft 17 kts 152°
2026-05-08 22:24 38.95382 -77.45833 280 ft 9 kts 150°
2026-05-08 22:24 38.95323 -77.45791 281 ft 7 kts 150°
2026-05-08 22:24 38.95293 -77.45769 282 ft 4 kts 150°
2026-05-08 22:25 38.95265 -77.45750 282 ft 5 kts 158°
2026-05-08 22:25 38.95192 -77.45722 283 ft 12 kts 168°
2026-05-08 22:25 38.95085 -77.45714 285 ft 16 kts 180°
2026-05-08 22:25 38.94949 -77.45720 286 ft 27 kts 180°
2026-05-08 22:26 38.94753 -77.45721 288 ft 27 kts 180°
2026-05-08 22:26 38.94561 -77.45725 289 ft 22 kts 180°
2026-05-08 22:26 38.94438 -77.45712 291 ft 13 kts 143°
2026-05-08 22:26 38.94422 -77.45583 291 ft 20 kts 90°
2026-05-08 22:27 38.94420 -77.45397 293 ft 20 kts 90°
2026-05-08 22:27 38.94418 -77.45232 295 ft 17 kts 90°
2026-05-08 22:27 38.94418 -77.45084 296 ft 11 kts 91°
2026-05-08 22:27 38.94424 -77.45003 296 ft 7 kts 58°
2026-05-08 22:28 38.94476 -77.44994 296 ft 7 kts 351°
2026-05-08 22:28 38.94496 -77.44997 296 ft 0 kts 351°